Home > Weather > Harare > Past weeks

Flag for Zimbabwe Past Weather in Harare, Zimbabwe — Yesterday and Last 2 Weeks

Now
48 °F

Clear.


Feels Like: 46 °F
Forecast: 44 / 68 °F
Wind: 5 mph from Southeast

Location: Harare Kutsaga Airport

Current Time: May 28, 2016 at 2:06:27 AM

Latest Report: May 28, 2016 at 1:00 AM


Visibility: 10 mi

Pressure: 30.33 "Hg (25.32 "Hg at 1490m altitude)

Humidity: 100%

Dew Point: 48 °F

Location of HarareLocation

Past Weather in Harare — Graph

°F

Harare Temperature Yesterday

Maximum temperature yesterday: 63 °F (at 1:00 PM)
Minimum temperature yesterday: 50 °F (at 5:00 AM)
Average temperature yesterday: 55 °F

High & Low Weather Summary for the Past Weeks

 TemperatureHumidityPressure
High77 °F (May 15, 4:00 PM)100% (May 16, 5:00 AM)30.51 "Hg (May 16, 5:00 AM)
Low43 °F (May 21, 3:00 AM)25% (May 13, 11:00 AM)30.04 "Hg (May 24, 10:00 AM)
Average59 °F67%30.35 "Hg
* Reported May 13 1:00 AM — May 28 1:00 AM, Harare, Weather by CustomWeather, © 2016

Note: Actual official high and low records may vary slightly from our data, if they occured in-between our weather recording intervals... More about our weather records

Advertising

Harare Weather History for the Previous 24 Hours

Scroll right to see more
 ConditionsComfort  
Time TempWeatherWind HumidityBarometerVisibility
1:00 AM
Sat, May 28
48 °FClear.5 mph100%30.33 "Hg10 mi
10:00 PM
Fri, May 27
52 °FPassing clouds.5 mph94%30.39 "HgN/A
9:00 PM54 °FClear.7 mph88%30.39 "Hg10 mi
8:00 PM55 °FPassing clouds.6 mph82%30.36 "HgN/A
7:00 PM57 °FPassing clouds.5 mph77%30.33 "HgN/A
6:00 PM57 °FPassing clouds.5 mph77%30.33 "HgN/A
5:00 PM61 °FPartly sunny.6 mph63%30.30 "HgN/A
4:00 PM61 °FBroken clouds.7 mph63%30.30 "HgN/A
3:00 PM63 °FBroken clouds.7 mph64%30.30 "HgN/A
2:00 PM63 °FBroken clouds.7 mph64%30.30 "HgN/A
1:00 PM63 °FBroken clouds.5 mph68%30.33 "HgN/A
12:00 PM61 °FBroken clouds.6 mph72%30.36 "HgN/A
11:00 AM59 °FBroken clouds.5 mph82%30.36 "HgN/A
10:00 AM55 °FPartly sunny.5 mph100%30.39 "HgN/A
9:00 AM54 °FPartly sunny.5 mph100%30.39 "HgN/A
8:00 AM52 °FPartly sunny.6 mph100%30.36 "HgN/A
7:00 AM50 °FPartly sunny.3 mph100%30.36 "HgN/A
6:00 AM50 °FClear.2 mph100%30.33 "Hg10 mi
5:00 AM50 °FLight rain. Passing clouds.5 mph100%30.30 "Hg5 mi
4:00 AM52 °FLight rain. Overcast.6 mph100%30.30 "Hg5 mi
3:00 AM52 °FLight rain. Overcast.5 mph100%30.33 "Hg5 mi
2:00 AM52 °FLight rain. Overcast.3 mph100%30.33 "Hg5 mi
Weather by CustomWeather, © 2016

See weather overviewHow to use our weather pages